FW6944 Weather Reports


Display with metric or nautical units.
time (UTC)temp
F
wind
direction
speed
MPH
gust
MPH
rain 1hr
in
rain 24hr
in
rain mn
in
humidity
%
barometer
mb
20260906154002 77 105 4.0 8.0 0.00 0.00 0.00 77 997.6
20260906152950 78 200 3.0 9.0 0.00 0.00 0.00 76 997.7
20260906152444 77 166 2.0 7.0 0.00 0.00 0.00 77 997.5
20260906151938 76 144 3.0 7.0 0.00 0.00 0.00 79 997.4
20260906151432 76 158 3.0 7.0 0.00 0.00 0.00 78 997.4
20260906150420 76 135 2.0 8.0 0.00 0.00 0.00 78 997.4
20260906145914 75 348 3.0 7.0 0.00 0.00 0.00 79 997.4
20260906144902 75 114 4.0 7.0 0.00 0.00 0.00 80 997.5
20260906144356 75 169 3.0 7.0 0.00 0.00 0.00 80 997.4
20260906143850 74 180 1.0 5.0 0.00 0.00 0.00 81 997.2
20260906143344 74 136 3.0 7.0 0.00 0.00 0.00 82 997.2
20260906142332 73 26 3.0 7.0 0.00 0.00 0.00 84 997.3
20260906141826 72 180 3.0 7.0 0.00 0.00 0.00 84 997.3
20260906141320 72 96 2.0 7.0 0.00 0.00 0.00 85 997.3
20260906140814 71 160 2.0 7.0 0.00 0.00 0.00 86 997.4
20260906140308 71 131 1.0 4.0 0.00 0.00 0.00 87 997.4
20260906135308 69 164 2.0 6.0 0.00 0.00 0.00 88 997.4
20260906134808 69 111 2.0 6.0 0.00 0.00 0.00 88 997.4
20260906134308 69 105 0.0 4.0 0.00 0.00 0.00 88 997.5
20260906133807 69 161 0.0 3.0 0.00 0.00 0.00 89 997.6
20260906133308 69 105 1.0 3.0 0.00 0.00 0.00 89 997.7
20260906132807 69 92 0.0 2.0 0.00 0.00 0.00 90 997.4
20260906132308 69 137 0.0 3.0 0.00 0.00 0.00 90 997.6
20260906131810 68 147 0.0 3.0 0.00 0.00 0.00 90 997.6
20260906131308 68 154 0.0 0.0 0.00 0.00 0.00 90 997.6
20260906130805 68 153 0.0 2.0 0.00 0.00 0.00 90 997.5
20260906130304 68 153 1.0 5.0 0.00 0.00 0.00 90 997.5
20260906125306 68 138 0.0 4.0 0.00 0.00 0.00 91 997.4
20260906124804 68 159 0.0 2.0 0.00 0.00 0.00 92 997.5
20260906124303 68 160 0.0 2.0 0.00 0.00 0.00 92 997.5
20260906123302 67 155 2.0 5.0 0.00 0.00 0.00 93 997.2
20260906122801 67 155 3.0 7.0 0.00 0.00 0.00 92 997.2
20260906122301 67 173 3.0 7.0 0.00 0.00 0.00 92 997.1
20260906121802 67 156 2.0 6.0 0.00 0.00 0.00 93 997.0
20260906121301 67 194 2.0 6.0 0.00 0.00 0.00 93 996.9
20260906120801 67 111 2.0 5.0 0.00 0.00 0.00 93 996.8
20260906115757 67 154 2.0 5.0 0.00 0.00 0.00 93 996.8
20260906115258 67 169 2.0 6.0 0.00 0.00 0.00 93 996.8
20260906114757 67 175 3.0 8.0 0.00 0.00 0.00 93 996.7
20260906114257 67 138 3.0 8.0 0.00 0.00 0.00 93 996.7
20260906113757 67 101 3.0 7.0 0.00 0.00 0.00 93 996.7
20260906113257 67 104 2.0 6.0 0.00 0.00 0.00 93 996.7
20260906112758 67 158 1.0 6.0 0.00 0.00 0.00 93 996.7
20260906112257 67 126 1.0 5.0 0.00 0.00 0.00 93 996.6
20260906111253 67 161 2.0 7.0 0.00 0.00 0.00 93 996.6
20260906110752 67 161 2.0 7.0 0.00 0.00 0.00 93 996.6
20260906110251 67 159 1.0 6.0 0.00 0.00 0.00 93 996.5
20260906105752 67 73 1.0 4.0 0.00 0.00 0.00 93 996.4
20260906105251 67 119 1.0 3.0 0.00 0.00 0.00 93 996.2
20260906104247 67 119 1.0 3.0 0.00 0.00 0.00 93 996.2
20260906103748 67 120 0.0 3.0 0.00 0.00 0.00 93 996.1
20260906103247 67 150 0.0 2.0 0.00 0.00 0.00 93 996.3
20260906102746 67 150 1.0 3.0 0.00 0.00 0.00 93 996.3
20260906102243 67 52 1.0 3.0 0.00 0.00 0.00 93 996.2
20260906101744 67 155 1.0 3.0 0.00 0.00 0.00 93 996.0
20260906101243 67 86 1.0 3.0 0.00 0.00 0.00 93 995.7
20260906100742 67 134 1.0 3.0 0.00 0.00 0.00 93 995.5
20260906100241 67 92 1.0 4.0 0.00 0.00 0.00 93 995.6
20260906095244 67 115 1.0 4.0 0.00 0.00 0.00 93 995.5
20260906094737 67 109 0.0 3.0 0.00 0.00 0.00 93 995.6
20260906094232 67 192 0.0 0.0 0.00 0.00 0.00 92 995.5
20260906093725 67 194 0.0 0.0 0.00 0.00 0.00 92 995.5
20260906093219 67 187 0.0 0.0 0.00 0.00 0.00 92 995.5
20260906092713 67 111 0.0 0.0 0.00 0.00 0.00 91 995.4
20260906091701 68 111 0.0 0.0 0.00 0.00 0.00 91 995.5
20260906091154 68 111 0.0 0.0 0.00 0.00 0.00 91 995.6
20260906090649 68 111 0.0 1.0 0.00 0.00 0.00 91 995.6
20260906090143 69 111 0.0 3.0 0.00 0.00 0.00 91 995.8
20260906085637 69 111 1.0 3.0 0.00 0.00 0.00 91 995.8
20260906084624 69 127 0.0 3.0 0.00 0.00 0.00 90 995.7
20260906084119 69 136 0.0 2.0 0.00 0.00 0.00 90 995.5
20260906083612 69 136 0.0 2.0 0.00 0.00 0.00 90 995.6
20260906082601 69 137 0.0 3.0 0.00 0.00 0.00 90 995.8
20260906082055 69 137 1.0 5.0 0.00 0.00 0.00 90 995.7
20260906081549 69 152 2.0 7.0 0.00 0.00 0.00 90 995.7
20260906081043 69 169 1.0 7.0 0.00 0.00 0.00 90 995.7
20260906080537 69 111 0.0 2.0 0.00 0.00 0.00 89 995.7
20260906080031 69 108 0.0 2.0 0.00 0.00 0.00 89 995.9
20260906075524 70 102 0.0 0.0 0.00 0.00 0.00 88 995.8
20260906075019 70 102 0.0 1.0 0.00 0.00 0.00 88 995.9
20260906074513 70 102 0.0 3.0 0.00 0.00 0.00 88 995.9
20260906074007 70 102 1.0 4.0 0.00 0.00 0.00 88 995.8
20260906073501 70 164 1.0 7.0 0.00 0.00 0.00 88 995.8
20260906072955 70 102 2.0 7.0 0.00 0.00 0.00 88 995.8
20260906071943 70 121 3.0 7.0 0.00 0.00 0.00 88 995.7
20260906070930 71 103 3.0 8.0 0.00 0.00 0.00 88 995.7
20260906070425 71 92 3.0 8.0 0.00 0.00 0.00 87 995.7
20260906065919 71 108 3.0 7.0 0.00 0.00 0.00 87 995.8
20260906065413 71 105 4.0 8.0 0.00 0.00 0.00 87 995.9
20260906064907 71 94 3.0 8.0 0.00 0.00 0.00 87 995.9
20260906064401 71 84 3.0 9.0 0.00 0.00 0.00 87 995.9
20260906063855 71 108 3.0 9.0 0.00 0.00 0.00 87 996.1
20260906062842 72 163 3.0 9.0 0.00 0.00 0.00 88 996.0
20260906062337 72 104 3.0 9.0 0.00 0.00 0.00 88 996.1
20260906060819 72 102 1.0 4.0 0.00 0.00 0.00 88 996.0
20260906055816 73 115 3.0 9.0 0.00 0.00 0.00 88 996.0
20260906055317 73 137 2.0 9.0 0.00 0.00 0.00 88 996.0
20260906054315 73 90 3.0 9.0 0.00 0.00 0.00 88 996.0
20260906053815 73 115 3.0 9.0 0.00 0.00 0.00 88 995.9
20260906052815 73 103 1.0 4.0 0.00 0.00 0.00 88 996.0
20260906052315 73 65 0.0 4.0 0.00 0.00 0.00 88 995.9
20260906051815 74 134 1.0 4.0 0.00 0.00 0.00 87 995.8
20260906051315 74 107 1.0 4.0 0.00 0.00 0.00 87 995.7
20260906050813 74 99 1.0 4.0 0.00 0.00 0.00 87 995.6
20260906050312 74 81 1.0 4.0 0.00 0.00 0.00 87 995.6
20260906045811 74 97 2.0 4.0 0.00 0.00 0.00 87 995.6
20260906045311 74 65 1.0 4.0 0.00 0.00 0.00 87 995.6
20260906044811 74 63 1.0 3.0 0.00 0.00 0.00 87 995.6
20260906044311 74 71 1.0 3.0 0.00 0.00 0.00 87 995.6
20260906043804 74 44 1.0 3.0 0.00 0.00 0.00 86 995.6
20260906043259 74 27 0.0 2.0 0.00 0.00 0.00 86 995.6
20260906042752 75 27 0.0 3.0 0.00 0.00 0.00 86 995.7
20260906041740 75 18 2.0 4.0 0.00 0.00 0.00 86 995.6
20260906041234 75 16 2.0 4.0 0.00 0.00 0.00 85 995.5
20260906040728 75 17 2.0 4.0 0.00 0.00 0.00 85 995.4
20260906040223 75 38 2.0 4.0 0.00 0.00 0.00 85 995.3
20260906035716 75 36 1.0 4.0 0.00 0.00 0.00 85 995.3
20260906035211 75 55 1.0 6.0 0.00 0.00 0.00 85 995.2
20260906034705 75 67 1.0 6.0 0.00 0.00 0.00 85 995.0
20260906034159 75 111 1.0 3.0 0.00 0.00 0.00 85 994.7
20260906033652 75 80 1.0 4.0 0.00 0.00 0.00 85 994.8
20260906033146 75 88 1.0 4.0 0.00 0.00 0.00 85 994.8
20260906032641 75 103 1.0 4.0 0.00 0.00 0.00 85 994.7
20260906031629 76 92 1.0 3.0 0.00 0.00 0.00 84 994.6
20260906031122 76 38 1.0 3.0 0.00 0.00 0.00 84 994.7
20260906030617 76 38 1.0 3.0 0.00 0.00 0.00 84 994.7
20260906030111 76 84 1.0 3.0 0.00 0.00 0.00 84 994.6
20260906025604 76 56 0.0 3.0 0.00 0.00 0.00 84 994.6
20260906025059 76 56 0.0 3.0 0.00 0.00 0.00 83 994.5
20260906024553 76 55 1.0 3.0 0.00 0.00 0.00 83 994.5
20260906024047 76 56 1.0 3.0 0.00 0.00 0.00 83 994.6
20260906023540 76 71 0.0 3.0 0.00 0.00 0.00 83 994.4
20260906022022 77 70 1.0 5.0 0.00 0.00 0.00 82 994.1
20260906021010 77 84 2.0 4.0 0.00 0.00 0.00 82 993.9
20260906020504 77 103 1.0 6.0 0.00 0.00 0.00 82 993.8
20260906015958 77 106 1.0 7.0 0.00 0.00 0.00 82 993.7
20260906015452 77 90 2.0 7.0 0.00 0.00 0.00 82 993.6
20260906014947 77 98 2.0 4.0 0.00 0.00 0.00 82 993.6
20260906014440 77 105 2.0 6.0 0.00 0.00 0.00 82 993.7
20260906013935 77 105 2.0 7.0 0.00 0.00 0.00 82 993.6
20260906013429 77 109 2.0 7.0 0.00 0.00 0.00 82 993.5
20260906012922 77 84 2.0 5.0 0.00 0.00 0.00 82 993.3
20260906012417 77 68 1.0 5.0 0.00 0.00 0.00 82 993.4
20260906011911 77 78 1.0 4.0 0.00 0.00 0.00 82 993.4
20260906010859 78 97 2.0 4.0 0.00 0.00 0.00 82 993.0
20260906010352 78 109 1.0 6.0 0.00 0.00 0.00 82 993.1
20260906005847 78 97 1.0 6.0 0.00 0.00 0.00 82 992.9
20260906005340 78 147 2.0 4.0 0.00 0.00 0.00 82 992.8
20260906004834 78 107 2.0 4.0 0.00 0.00 0.00 82 992.8
20260906004329 78 88 1.0 4.0 0.00 0.00 0.00 81 992.9
20260906003822 78 40 1.0 2.0 0.00 0.00 0.00 81 992.9
20260906003317 78 40 1.0 3.0 0.00 0.00 0.00 81 993.0
20260906002811 78 36 1.0 3.0 0.00 0.00 0.00 80 993.0
20260906002306 79 32 1.0 3.0 0.00 0.00 0.00 80 993.1
20260906001252 79 18 1.0 3.0 0.00 0.00 0.00 80 993.1
20260906000746 79 18 1.0 4.0 0.00 0.00 0.00 79 993.2
20260906000241 79 11 2.0 4.0 0.00 0.00 0.00 79 993.2
20260905235734 79 34 2.0 4.0 0.00 0.00 0.00 79 993.2
20260905234733 79 30 3.0 8.0 0.00 0.00 0.00 79 993.3
20260905234232 79 103 4.0 8.0 0.00 0.00 0.00 78 993.2
20260905233733 79 111 4.0 8.0 0.00 0.00 0.00 78 993.2
20260905233232 79 72 2.0 7.0 0.00 0.00 0.00 78 993.3
20260905232733 80 94 2.0 7.0 0.00 0.00 0.00 78 993.3
20260905232233 80 55 3.0 8.0 0.00 0.00 0.00 77 993.3
20260905231732 80 102 4.0 8.0 0.00 0.00 0.00 77 993.3
20260905231232 80 49 3.0 9.0 0.00 0.01 0.00 77 993.3
20260905230233 80 26 3.0 10.0 0.00 0.01 0.00 76 993.3
20260905225732 80 98 3.0 10.0 0.00 0.01 0.00 76 993.3
20260905224732 81 101 4.0 10.0 0.00 0.01 0.00 76 993.3
20260905224232 81 36 5.0 11.0 0.00 0.01 0.00 76 993.3
20260905223733 81 96 6.0 11.0 0.00 0.01 0.00 76 993.4
20260905222732 83 101 5.0 11.0 0.00 0.01 0.00 74 993.3
20260905222232 83 114 6.0 11.0 0.00 0.01 0.00 74 993.2
20260905221732 83 36 5.0 11.0 0.00 0.01 0.00 74 993.2
20260905221232 83 123 6.0 11.0 0.00 0.01 0.00 75 993.1
20260905220733 83 114 5.0 11.0 0.00 0.01 0.00 75 993.2
20260905220232 84 134 5.0 11.0 0.00 0.01 0.00 74 993.2
20260905215233 84 109 3.0 9.0 0.00 0.01 0.00 74 993.3
20260905214730 83 74 3.0 9.0 0.00 0.01 0.00 74 993.2
20260905214230 83 43 4.0 11.0 0.00 0.01 0.00 74 993.3
20260905213729 83 85 4.0 11.0 0.00 0.01 0.00 75 993.3
20260905213226 84 83 3.0 8.0 0.00 0.01 0.00 75 993.2
20260905212726 83 71 3.0 8.0 0.00 0.01 0.00 75 993.2
20260905211726 84 103 4.0 10.0 0.00 0.01 0.00 74 993.0
20260905211224 84 86 3.0 6.0 0.00 0.01 0.00 75 993.2
20260905210722 83 38 4.0 10.0 0.00 0.01 0.00 77 993.1
20260905210222 83 26 5.0 10.0 0.00 0.01 0.00 77 993.2
20260905205220 83 89 4.0 9.0 0.00 0.01 0.00 76 993.1
20260905204723 84 72 4.0 8.0 0.00 0.01 0.00 76 993.2
20260905204220 83 302 4.0 9.0 0.00 0.01 0.00 78 993.1
20260905203719 83 0 4.0 12.0 0.00 0.01 0.00 78 993.2
20260905203218 83 33 4.0 12.0 0.00 0.01 0.00 78 993.2
20260905202219 83 73 3.0 7.0 0.00 0.01 0.00 79 993.1
20260905201718 83 44 3.0 9.0 0.00 0.01 0.00 79 993.3
20260905201216 83 66 4.0 9.0 0.00 0.01 0.00 78 993.4
20260905200716 83 96 3.0 9.0 0.00 0.01 0.00 79 993.5
20260905200216 83 11 3.0 8.0 0.00 0.01 0.00 78 993.5
20260905195215 83 36 4.0 8.0 0.00 0.01 0.00 79 993.7
20260905194709 83 86 3.0 9.0 0.00 0.01 0.00 78 993.6
20260905194201 84 52 2.0 9.0 0.00 0.01 0.00 77 993.6
20260905193656 83 23 2.0 10.0 0.00 0.01 0.00 79 993.6
20260905193149 82 53 4.0 10.0 0.00 0.01 0.00 79 993.7
20260905192644 82 22 4.0 11.0 0.00 0.01 0.00 82 993.8
20260905192137 81 16 4.0 11.0 0.00 0.01 0.00 83 993.6
20260905191632 81 35 5.0 10.0 0.00 0.01 0.00 84 993.7
20260905191126 81 42 5.0 10.0 0.00 0.01 0.00 84 993.8
20260905190619 80 47 4.0 8.0 0.00 0.01 0.00 84 993.8
20260905190114 80 80 3.0 9.0 0.00 0.01 0.00 84 993.8
20260905185607 80 91 3.0 9.0 0.00 0.01 0.00 84 993.9
20260905185102 80 355 3.0 7.0 0.00 0.01 0.00 84 994.0
20260905184555 80 40 4.0 11.0 0.00 0.01 0.00 85 994.1
20260905184049 80 29 4.0 11.0 0.00 0.01 0.00 85 993.9
20260905183544 80 43 3.0 7.0 0.00 0.01 0.00 85 994.0
20260905183037 80 55 4.0 8.0 0.00 0.01 0.00 85 993.9
20260905182532 80 58 4.0 11.0 0.00 0.01 0.00 85 994.0
20260905182025 80 31 4.0 11.0 0.00 0.01 0.00 85 993.8
20260905181520 80 29 4.0 11.0 0.00 0.01 0.00 85 993.8
20260905175456 80 28 3.0 8.0 0.00 0.01 0.00 84 993.9
20260905174949 80 67 3.0 8.0 0.00 0.01 0.00 85 993.8
20260905174444 80 30 3.0 9.0 0.00 0.01 0.00 85 993.9
20260905173938 80 74 4.0 9.0 0.00 0.01 0.00 85 994.0
20260905173431 79 109 4.0 10.0 0.00 0.01 0.00 85 993.9
20260905172925 79 78 5.0 12.0 0.00 0.01 0.00 86 994.0
20260905171913 79 86 5.0 10.0 0.00 0.01 0.00 85 993.9
20260905171407 80 9 4.0 9.0 0.00 0.01 0.00 85 994.0
20260905170901 80 91 3.0 8.0 0.00 0.01 0.00 85 994.1
20260905170355 80 5 3.0 6.0 0.00 0.01 0.00 84 994.2
20260905165850 80 53 4.0 9.0 0.00 0.01 0.00 84 994.3
20260905165344 80 20 4.0 9.0 0.00 0.01 0.00 84 994.3
20260905164837 80 121 2.0 8.0 0.00 0.03 0.00 83 994.4
20260905164332 80 94 2.0 7.0 0.00 0.03 0.00 83 994.4
20260905163826 80 92 3.0 8.0 0.00 0.03 0.00 84 994.2
20260905163319 80 9 3.0 9.0 0.00 0.03 0.00 83 994.2
20260905162307 80 87 4.0 10.0 0.00 0.03 0.00 83 994.2
20260905161801 80 101 3.0 10.0 0.00 0.03 0.00 83 994.2
20260905161255 80 76 4.0 8.0 0.00 0.03 0.00 83 994.2
20260905160244 80 33 4.0 9.0 0.00 0.03 0.00 84 994.0
20260905155743 80 101 4.0 10.0 0.00 0.03 0.00 83 994.0
20260905155242 81 82 4.0 10.0 0.00 0.03 0.00 82 994.0